Hourly Data Report for October 29, 2016

All times are specified in Local Standard Time (LST). Add 1 hour to adjust for Daylight Saving Time where and when it is observed.

GJOA HAVEN A
NUNAVUT

68°38'08.000" N
95°51'01.000" W
46.90 m
2302337
71597
YHK

Download Data

Hourly Data (October 2016)
Hourly Data Report for October 29, 2016
Temp Definition
°C
Dew Point Temp Definition
°C
Rel Hum Definition
%
Wind Dir Definition
10's deg

Wind Spd Definition
km/h
Visibility Definition
km
Stn Press Definition
kPa
Hmdx Definition


Wind Chill Definition


Weather Definition


TIME
00:00 Legend Double Dagger -11.7 -12.7 92 1 34 2.4 100.14   -22 Snow
01:00 Legend Double Dagger -10.8 -11.7 93 4 37 1.6 100.18   -21 Snow
02:00 Legend Double Dagger -12.5 -13.7 91 4 41 4.8 100.21   -24 Fog
03:00 Legend Double Dagger -14.7 -16.1 89 2 28 16.1 100.27   -25 LegendNANA
04:00 Legend Double Dagger -15.1 -16.5 89 2 28 16.1 100.28   -26 LegendNANA
05:00 Legend Double Dagger -14.7 -16.0 90 35 24 16.1 100.31   -25 LegendNANA
06:00 Legend Double Dagger -14.2 -15.3 91 36 30 16.1 100.29   -25 LegendNANA
07:00 Legend Double Dagger -14.2 -15.6 90 36 32 16.1 100.26   -25 LegendNANA
08:00 Legend Double Dagger -15.0 -16.3 90 34 37 6.4 100.22   -27 Fog
09:00 Legend Double Dagger -11.9 -13.0 92 34 37 1.2 100.10   -23 Snow
10:00 Legend Double Dagger -10.8 -11.7 93 34 41 1.0 99.97   -22 Snow,Blowing Snow
11:00 Legend Double Dagger -8.3 -9.0 95 36 52 0.6 99.84   -20 Moderate Snow
12:00 Legend Double Dagger -7.6 -8.1 96 36 61 0.4 99.78   -19 Heavy Snow
13:00 Legend Double Dagger -7.3 -7.8 96 1 59 0.4 99.78   -19 Heavy Snow
14:00 Legend Double Dagger -6.8 -7.3 96 1 55 0.6 99.80   -18 Moderate Snow
15:00 Legend Double Dagger -6.0 -6.4 97 2 58 0.8 99.84   -17 Moderate Snow
16:00 Legend Double Dagger -5.7 -6.1 97 2 54 2.0 99.90   -16 Snow
17:00 Legend Double Dagger -5.4 -5.8 97 2 52 2.0 99.96   -16 Snow
18:00 Legend Double Dagger -6.3 -6.7 97 2 45 4.8 100.02   -16 Snow
19:00 Legend Double Dagger -6.3 -6.7 97 2 43 4.8 100.09   -16 Snow
20:00 Legend Double Dagger -6.1 -6.5 97 36 46 4.0 100.18   -16 Snow
21:00 Legend Double Dagger -6.1 -6.5 97 1 41 8.1 100.25   -16 Fog
22:00 Legend Double Dagger -6.1 -6.5 97 36 39 8.1 100.29   -15 Fog
23:00 Legend Double Dagger -6.5 -7.0 96 36 32 14.5 100.36   -15 LegendNANA

Notes on Data Quality.

Legend

  • E = Estimated
  • M = Missing
  • NA = Not Available
  • ‡ = Partner data that is not subject to review by the National Climate Archives
Date modified: